Powrót do katalogu

GRUS-3D

AktywnyNaukaSSO
NORAD 69919·PAYLOAD·🇫🇮 Finland

Wystrzelony Jul 7, 2026 z Vandenberg Space Force Base

Loading…

Następne Przeloty (najbliższe 24 godziny)

TLE

ŚwieżeSource: Space-Track

Epoka: Sep 13, 2026, 16:28 UTC

1 69919U 26156BC  26256.68613588  .00000769  00000-0  81442-4 0  9995
2 69919  97.7441 155.9974 0005760 292.3925  67.6683 14.91954625 10191

Śledź GRUS-3D w czasie rzeczywistym z AllMySat

Download on the App Store